Regional Weather Roundup
Issued by NWS

Home | Current Version | Previous Version | Text Only | Print | Product List | Glossary Off
Versions: 1 2 3 4 5 6 7 8 9 10 11 12 13 14 15 16 17 18 19 20 21 22 23 24 25 26 27 28 29 30 31 32 33 34 35 36 37 38 39 40 41 42 43 44 45 46 47 48 49 50

000
ASUS44 KMEG 280510
RWRTN
TENNESSEE HOURLY STATE WEATHER ROUNDUP
NATIONAL WEATHER SERVICE MEMPHIS TN
1100 PM CST MON FEB 27 2017

TNZ002-004-019-021-049-052-054-088>092-280600-
WEST TENNESSEE

CITY           SKY/WX    TMP DP  RH WIND       PRES   REMARKS
MEMPHIS INTL   MOCLDY    57  53  86 S10       30.07F
NWS MEMPHIS      N/A     56 N/A N/A MISG        N/A
JACKSON        MOCLDY    57  52  83 S9        30.09F
UNION CITY     MOCLDY    54  50  87 CALM      30.06F
PARIS          PTCLDY    52  45  76 SE9       30.10F
HUNTINGDON     CLOUDY    55  50  82 S10       30.10S
$$

TNZ008-025-027-028-033-062-065-066-280600-
NORTH MIDDLE TENNESSEE

CITY           SKY/WX    TMP DP  RH WIND       PRES   REMARKS
NASHVILLE      CLOUDY    52  46  80 S8        30.19F
PORTLAND       CLEAR     52  46  82 S12G17    30.17F
CLARKSVILLE    CLOUDY    53  45  74 S9        30.14F
SMYRNA         CLOUDY    49  46  90 SE9       30.20F
COOKEVILLE     PTCLDY    52  45  76 S9        30.22F
GALLATIN       CLEAR     50  45  81 E5        30.21F
CROSSVILLE     CLOUDY    49  44  83 S7        30.25S
$$

TNZ061-075-076-078-094-096-097-280600-
SOUTH MIDDLE TENNESSEE

CITY           SKY/WX    TMP DP  RH WIND       PRES   REMARKS
FAYETTEVILLE   CLOUDY    54  50  87 S8G15     30.22S
TULLAHOMA      CLEAR     48  45  87 SE6       30.22F
WINCHESTER     MOCLDY    52  46  82 S12       30.24S
MCMINNVILLE    MOCLDY    48  46  93 CALM      30.22S
COLUMBIA       CLOUDY   N/A N/A N/A SE8       30.16F
SHELBYVILLE    PTCLDY    52  48  87 S6        30.22F
$$

TNZ017-018-042-046-047-280600-
NORTHEAST TENNESSEE

CITY           SKY/WX    TMP DP  RH WIND       PRES   REMARKS
TRI CITIES     PTCLDY    45  36  70 N3        30.28S
ELIZABETHTON   CLEAR     43  37  81 CALM      30.29S
$$

TNZ012-013-036-069-073-074-280600-
CENTRAL EAST TENNESSEE

CITY           SKY/WX    TMP DP  RH WIND       PRES   REMARKS
KNOXVILLE      PTCLDY    48  39  71 CALM      30.28R
OAK RIDGE      MOCLDY    48  41  76 CALM      30.29R
DOWNTOWN KNOXV CLEAR     43  41  93 CALM      30.29R
GATLINBURG     CLEAR     37  34  87 CALM      30.27S
MORRISTOWN     CLEAR     43  36  75 CALM      30.27R
JACKSBORO      CLEAR     37  36  93 CALM      30.30S
$$

TNZ083-085-099-280600-
SOUTHEAST TENNESSEE

CITY           SKY/WX    TMP DP  RH WIND       PRES   REMARKS
CHATTANOOGA    PTCLDY    44  42  93 CALM      30.28R
$$

SKY/WX REPORTED AS FAIR MEANS FEW OR NO CLOUDS BELOW
12 THOUSAND FEET.





USA.gov is the U.S. government's official web portal to all federal, state and local government web resources and services.